Theta_e
324 323 323 323 323 321 319 319 320 322 323 326 328 327 325 326 329 328 327 327 328 327 324 319 317 316 315 314 314 313 312 311 310 310 310 310 310 311 312 312 315 317 318 320 322 323 324 324 324 324 325 325 325 325 326 326 327 328 328 328 327 327 327 327 325 325 326 326 326 326 326 326 326 326 325 324 324 325 325 324 323 322 320 317 316 317 317
324 324 324 323 321 319 317 316 317 318 321 322 324 323 323 326 326 323 323 324 322 320 318 315 313 313 312 311 311 310 310 309 308 307 307 307 307 308 309 310 312 315 316 318 321 322 322 323 323 324 324 324 324 324 325 325 326 327 328 327 326 325 326 327 326 326 326 326 326 326 326 326 326 325 323 323 323 324 324 323 323 321 318 316 316 317 316
323 324 323 320 318 317 316 315 314 316 319 321 321 322 322 324 325 322 321 321 318 316 314 312 311 310 310 309 308 308 308 307 306 306 305 305 305 306 307 308 310 313 315 317 319 320 320 320 322 323 323 324 323 323 324 324 325 326 327 327 327 325 325 327 326 326 325 325 326 326 326 325 325 324 323 322 322 323 323 323 323 320 316 316 316 316 316
322 323 322 320 318 318 318 316 313 314 318 320 320 318 317 321 324 323 321 320 317 314 311 309 309 308 308 308 307 307 306 305 305 304 304 304 304 305 306 307 309 311 313 315 316 317 318 318 320 321 322 323 322 322 323 324 325 326 326 327 327 326 325 325 325 324 325 326 325 325 325 325 324 324 323 323 323 322 320 321 322 320 316 317 317 316 316
320 321 323 320 319 321 321 316 312 312 315 317 318 317 316 317 319 321 322 319 315 311 309 308 307 306 306 306 305 305 304 304 303 303 303 303 303 305 305 305 307 308 310 312 313 314 315 317 318 319 320 321 321 322 323 324 324 325 326 326 327 326 325 324 323 323 325 326 325 325 325 325 324 323 322 323 322 321 320 320 321 319 317 318 318 316 316
320 321 322 322 321 320 318 313 310 311 313 314 315 316 316 316 315 316 317 314 311 308 307 306 306 305 304 304 304 304 303 303 302 302 302 302 303 304 304 305 306 307 307 309 310 312 313 315 316 317 318 319 320 321 322 323 323 323 324 325 326 326 326 325 325 325 325 325 325 324 324 324 324 323 322 322 321 320 320 320 320 320 318 318 319 318 318
320 320 321 324 322 317 313 311 309 309 311 312 313 314 313 313 312 312 311 309 308 307 306 305 304 304 303 303 303 302 302 302 301 301 301 301 302 303 304 305 305 306 307 307 308 310 311 313 314 316 317 317 318 319 320 320 321 321 322 323 323 324 324 324 325 325 326 326 325 324 324 324 323 322 321 322 321 320 320 320 319 320 318 318 319 319 319
319 319 320 321 317 312 311 310 309 309 310 311 312 314 312 311 311 310 308 307 306 305 305 304 303 303 303 302 302 302 301 301 301 301 301 301 302 302 303 304 305 305 306 306 307 308 309 311 314 315 315 316 317 318 318 319 319 319 320 321 322 322 322 321 321 322 324 325 325 324 324 324 323 322 321 322 321 320 320 320 320 320 319 318 319 319 319
318 317 317 315 313 311 310 309 309 309 309 309 310 313 313 311 310 309 308 307 306 305 305 304 303 303 303 302 302 301 301 300 300 301 301 301 302 302 303 304 305 305 305 305 306 307 308 310 312 312 313 314 315 317 317 317 317 318 318 319 320 321 322 321 320 320 320 322 322 323 323 324 323 322 320 320 320 319 319 319 319 319 318 318 319 319 319
317 315 314 314 315 313 310 308 308 309 309 308 309 312 312 310 309 309 307 306 306 306 305 304 305 305 303 302 301 301 301 300 300 300 300 301 301 302 303 304 304 306 306 306 305 306 307 308 309 310 311 313 314 315 315 315 315 316 317 317 318 319 320 321 321 320 319 319 319 321 322 322 322 320 318 317 317 316 317 318 318 318 319 319 319 320 320
317 316 316 315 315 312 308 306 307 308 309 308 309 313 312 309 309 309 308 307 307 306 306 306 306 306 304 301 300 300 300 300 299 299 299 299 300 301 302 303 304 305 306 306 307 306 306 306 307 308 310 313 314 315 314 314 314 315 314 314 315 316 317 318 320 320 320 319 319 320 320 320 321 319 317 318 318 317 317 318 316 317 318 318 317 318 319
316 316 314 312 310 308 306 305 306 307 307 307 311 316 313 308 307 309 308 307 307 306 305 305 304 303 302 301 299 299 299 299 299 299 299 299 299 300 300 302 303 304 305 306 307 307 306 306 305 306 308 310 312 312 312 313 314 313 313 313 313 314 315 316 317 318 318 319 319 319 320 319 319 319 318 318 319 318 318 317 315 313 314 314 314 314 315
313 312 311 310 308 306 304 304 305 306 307 309 314 314 310 305 305 306 306 305 304 304 303 302 301 300 300 299 299 299 299 299 299 299 299 299 300 300 300 301 302 303 304 305 305 306 305 305 306 306 306 306 307 307 308 310 310 310 311 312 313 313 314 314 315 315 316 316 317 317 318 318 318 319 319 318 317 317 318 317 315 314 315 315 315 314 314
313 312 310 309 308 305 303 304 305 306 308 312 311 307 306 304 303 303 303 302 302 302 301 299 298 298 298 298 298 299 299 299 298 299 299 299 300 300 300 300 301 301 302 303 304 304 305 306 306 306 306 306 304 304 304 304 305 307 310 312 312 313 314 314 314 314 314 314 314 314 315 316 317 318 317 317 317 317 317 317 317 317 317 317 317 316 316
311 310 309 309 308 305 303 304 305 305 307 308 305 303 304 303 301 301 301 300 300 300 299 298 298 298 298 298 299 298 298 298 298 299 299 299 300 300 300 300 300 300 301 301 301 302 303 305 306 306 307 307 306 306 304 302 301 302 304 307 310 312 313 313 313 313 313 313 312 312 312 313 314 314 315 316 316 317 317 317 317 318 318 318 317 316 315
308 308 306 306 305 303 302 303 304 304 305 305 304 303 302 301 300 300 300 299 299 299 298 298 299 299 299 299 298 298 298 298 298 299 299 299 300 300 300 300 301 301 301 300 300 300 301 303 305 306 307 307 307 307 307 305 304 303 301 302 304 307 308 309 310 311 312 312 312 312 311 311 311 311 312 313 315 316 316 317 317 317 317 317 316 315 314
305 305 304 303 302 301 302 303 303 304 304 304 303 302 300 300 300 300 299 299 299 299 299 299 299 299 299 298 298 298 298 298 298 298 298 298 299 299 299 299 299 300 300 300 300 300 299 300 302 304 305 307 307 307 307 307 307 306 305 304 303 302 301 302 303 305 307 309 311 312 312 312 311 310 310 311 312 313 314 315 315 315 315 316 316 315 314
304 304 303 302 301 301 302 302 303 303 303 302 301 301 300 300 300 300 300 300 300 299 299 299 299 299 299 298 298 298 298 298 298 298 298 298 298 298 298 298 298 298 299 299 299 299 298 298 299 300 301 303 304 304 305 306 307 307 307 306 305 304 302 301 300 300 301 303 304 306 308 310 311 311 310 310 310 310 310 311 311 312 313 313 314 314 314
305 304 303 302 301 301 301 302 302 302 301 301 301 301 300 300 300 300 300 300 300 300 300 300 300 299 299 299 299 298 298 298 298 298 299 299 299 299 299 298 298 298 298 299 299 299 298 298 298 299 299 299 299 300 301 303 305 306 307 307 306 306 305 304 304 303 302 301 301 302 302 303 305 307 308 309 310 309 309 308 308 309 310 310 311 311 311
304 304 302 302 301 301 301 301 301 301 301 301 301 301 301 301 301 301 300 300 300 300 300 299 299 299 299 299 299 299 299 298 298 298 298 298 299 299 299 299 299 299 299 299 299 299 299 298 298 299 299 300 300 300 300 301 302 302 303 303 303 304 304 304 305 304 304 303 303 302 300 299 300 301 303 305 307 308 308 308 307 307 308 308 308 308 308
304 303 303 302 302 302 301 301 301 301 301 301 301 301 301 300 300 300 300 300 300 299 299 299 299 299 299 299 299 299 299 298 298 298 297 297 298 299 299 299 299 299 299 299 299 299 299 299 298 298 299 300 300 301 301 301 301 301 300 298 298 299 300 301 302 302 302 302 302 301 299 299 298 298 298 299 301 302 304 305 306 306 307 307 307 306 306
304 304 303 303 302 302 302 301 301 300 300 300 300 300 300 300 300 300 299 299 299 299 299 299 298 298 298 298 298 298 298 297 298 298 297 297 297 298 299 299 299 299 299 299 299 299 299 299 299 298 298 299 299 300 301 302 302 301 300 299 298 299 299 300 301 302 302 302 302 301 301 300 299 298 297 297 297 297 299 300 302 302 303 303 304 304 304
303 303 303 303 302 302 302 301 301 300 300 300 300 300 300 299 299 299 299 299 299 299 299 298 298 298 298 298 298 298 297 297 297 297 297 297 297 297 298 299 299 299 299 299 299 298 298 299 299 298 298 298 299 299 300 301 302 302 301 301 300 301 301 301 302 302 302 302 302 302 302 302 301 300 299 298 297 297 297 297 297 297 298 298 299 299 299
302 303 303 302 302 302 302 301 301 301 300 300 300 300 300 300 299 299 299 299 299 299 299 299 298 298 298 298 297 297 296 297 297 297 297 297 297 297 297 298 298 299 299 298 298 298 298 298 299 298 298 298 298 299 299 299 300 301 301 301 302 302 302 302 302 302 302 302 302 302 302 302 302 301 301 300 299 299 299 298 298 298 297 296 296 296 296
303 302 302 302 302 302 302 302 301 301 301 301 300 300 300 300 300 300 300 299 299 299 298 298 298 298 297 297 297 296 296 296 297 297 296 296 295 295 296 297 297 298 299 298 298 298 298 298 298 298 297 297 298 299 299 299 299 299 300 301 302 302 302 302 302 302 302 302 302 302 302 301 302 301 301 301 301 300 300 300 300 299 299 298 297 297 296
302 302 302 302 302 302 302 301 301 301 301 301 301 301 300 300 299 299 299 299 298 298 298 298 298 298 298 298 297 297 297 297 297 296 296 295 294 294 295 296 297 298 298 298 298 298 298 298 298 298 297 298 298 298 299 299 299 299 300 300 301 301 301 301 302 302 302 302 302 301 301 301 301 301 301 301 301 301 301 301 300 300 300 300 299 297 296
301 302 302 301 301 301 301 301 301 301 300 300 300 300 300 299 299 299 298 298 298 298 298 298 298 298 298 298 298 298 297 297 297 296 296 296 295 295 295 296 297 298 298 298 298 298 298 298 298 297 297 297 298 298 298 298 299 299 299 299 299 300 300 300 300 300 301 302 301 301 301 301 301 301 301 300 300 300 300 301 301 300 300 299 298 297 297
302 301 301 301 301 301 301 300 300 300 300 300 300 300 299 299 299 299 299 298 298 298 298 298 298 298 298 298 298 297 297 297 297 296 296 296 296 295 295 295 296 297 298 298 298 297 298 297 297 297 296 297 297 298 298 298 298 299 299 299 299 299 300 300 299 298 299 300 301 300 300 300 300 300 300 300 300 300 300 300 301 300 299 299 298 298 298
301 301 301 301 301 301 300 301 301 300 300 300 300 300 300 300 299 299 299 299 299 298 298 298 298 298 298 298 297 297 297 296 296 296 296 296 296 295 293 294 296 297 298 298 298 297 297 297 297 297 296 296 297 298 298 298 298 298 298 298 298 298 299 299 299 298 298 299 299 300 300 300 300 299 299 299 299 299 299 300 300 299 298 298 298 298 298
300 300 300 300 300 300 300 300 301 301 300 300 300 300 300 300 299 299 299 299 299 299 299 299 298 298 298 297 297 297 297 296 296 296 296 296 296 295 292 293 296 297 298 297 297 297 297 297 297 297 296 296 296 297 298 298 298 298 298 297 297 297 298 299 299 298 298 299 299 299 299 299 299 299 299 299 299 298 298 299 299 298 298 297 297 297 297
301 300 300 300 300 300 300 300 300 300 300 300 300 300 300 300 299 299 299 299 299 299 299 298 298 298 297 297 297 297 296 296 296 296 296 296 296 294 292 292 295 297 297 297 297 296 296 297 297 297 296 296 296 297 297 297 298 298 298 297 297 297 298 298 298 298 298 298 298 298 298 298 298 298 298 298 298 298 298 298 297 297 297 297 297 297 297
301 300 300 300 300 300 300 300 300 300 300 300 300 300 300 300 299 299 299 299 299 299 299 298 298 298 297 297 297 296 296 296 296 296 295 295 294 293 291 292 295 296 296 296 296 296 296 297 297 296 296 297 296 296 297 297 297 297 297 297 297 297 297 297 298 298 297 297 298 298 298 298 298 298 298 297 297 297 297 296 297 297 297 296 296 296 296
301 300 301 300 300 300 300 300 300 300 300 300 300 300 299 299 299 299 299 299 299 299 299 298 298 298 297 297 297 297 296 296 295 294 293 293 292 291 291 293 294 295 295 295 295 296 296 297 297 296 296 297 296 296 296 297 297 297 297 297 297 297 297 297 298 298 297 297 297 297 297 297 297 297 297 296 296 296 296 296 296 296 296 296 296 295 295
301 301 301 301 300 300 300 300 300 300 299 300 300 300 299 299 299 299 299 299 299 299 299 298 298 298 297 297 297 296 295 294 294 293 291 291 291 291 292 293 295 295 295 294 295 296 296 296 296 296 296 296 296 296 296 297 297 296 297 297 297 297 297 297 297 297 297 297 297 297 297 296 296 296 296 296 296 296 296 295 296 295 295 295 295 294 294
301 301 301 301 300 300 300 300 300 300 300 300 300 300 300 299 299 299 299 299 299 298 298 298 297 297 297 296 296 296 295 295 295 294 292 290 290 291 292 293 295 295 294 294 294 295 295 296 296 297 296 296 296 296 296 296 296 296 296 297 297 297 297 297 297 297 297 297 296 296 295 295 296 296 296 296 295 295 295 295 295 295 295 294 294 294 294
300 300 300 300 300 300 300 300 300 300 300 300 300 300 300 299 299 298 298 298 298 298 298 297 297 297 296 296 296 296 296 296 295 293 291 290 290 290 291 293 294 294 295 295 294 293 293 295 296 297 296 295 295 296 297 296 295 296 296 297 297 297 297 297 297 297 297 297 296 296 295 295 295 296 296 296 295 295 295 295 295 295 295 294 293 294 294
300 300 300 300 300 300 300 299 299 300 300 300 300 299 299 299 299 299 298 298 298 298 298 297 297 297 297 297 296 296 296 296 295 292 290 290 290 290 291 292 293 293 294 293 292 291 292 294 295 295 295 295 296 296 296 295 295 296 297 297 297 297 297 297 297 297 297 297 297 296 296 295 295 295 295 295 295 294 294 295 295 295 295 294 294 294 294
300 300 300 300 300 300 300 299 299 299 299 300 299 299 299 299 298 298 298 298 298 298 298 297 297 297 297 297 296 296 297 296 295 293 292 293 293 292 292 293 293 293 292 291 290 290 291 293 294 295 295 296 296 295 295 295 295 296 297 297 297 297 297 297 297 297 297 297 296 296 296 296 295 295 295 295 294 293 294 295 295 295 295 294 294 294 294
300 300 300 300 299 299 299 299 299 299 299 299 299 299 299 299 298 298 298 298 297 297 298 297 296 296 297 297 296 296 297 297 296 294 293 294 294 294 294 294 294 293 292 290 289 289 290 292 294 296 295 295 295 295 295 295 295 295 296 297 297 297 297 297 297 297 297 296 296 296 296 296 296 295 295 294 294 294 294 294 295 295 295 294 293 293 294
300 300 300 300 299 299 299 299 299 299 299 299 299 298 298 298 298 298 298 298 297 297 297 297 297 296 296 297 297 296 296 296 296 295 295 294 294 294 294 295 294 294 292 290 289 289 290 292 295 296 295 295 296 295 295 295 295 295 295 296 297 297 297 297 297 297 297 297 296 296 296 296 295 294 294 294 294 294 294 294 294 294 295 294 293 293 293
300 300 300 299 299 299 299 299 299 299 299 299 299 299 298 298 299 298 298 298 298 298 297 297 297 297 297 296 296 296 295 296 296 296 296 296 295 294 295 295 295 294 292 290 289 292 294 295 295 295 295 295 296 295 295 296 296 296 296 296 296 296 296 296 296 297 297 297 296 296 296 296 295 295 295 295 295 294 294 294 294 294 294 294 294 293 293
300 300 299 299 299 299 299 299 299 299 299 299 299 299 299 299 298 298 298 298 298 298 298 297 297 298 297 297 296 296 296 296 297 297 297 297 296 295 295 295 295 293 292 290 291 293 295 295 295 296 295 295 294 295 295 296 296 296 296 296 295 295 295 295 296 296 297 296 296 296 296 296 296 295 295 295 295 295 294 294 294 294 294 294 294 294 293
300 300 299 300 300 299 299 299 299 299 299 299 299 299 299 299 298 298 298 298 298 298 298 298 298 298 298 297 297 297 297 297 297 297 297 297 297 296 295 296 295 293 292 292 293 294 295 295 295 296 296 295 294 294 294 295 296 297 296 296 296 295 295 295 295 295 296 296 296 296 296 296 296 296 295 295 294 294 294 294 294 294 294 294 294 294 294
300 300 299 300 300 299 299 299 299 299 299 299 299 299 299 299 299 299 299 299 298 298 298 298 298 298 298 298 298 298 297 297 297 297 297 297 297 296 295 296 295 294 293 293 293 293 294 295 295 295 293 293 293 292 291 293 295 297 297 296 296 296 295 295 295 295 295 294 294 294 295 295 295 295 295 294 294 294 294 294 294 294 294 294 294 294 294
300 300 300 300 300 299 299 299 299 299 299 299 300 300 299 299 299 299 299 299 298 298 298 298 298 298 298 298 298 298 298 298 298 298 297 297 297 296 296 296 295 295 295 294 294 293 294 294 294 294 292 291 290 289 289 290 294 296 297 297 296 296 296 296 295 295 295 295 295 294 294 294 294 294 294 294 294 294 294 294 294 294 294 294 294 294 294
300 300 300 300 300 299 299 299 299 299 299 299 299 299 299 299 299 299 299 299 299 299 299 299 299 299 299 298 298 298 298 298 298 298 298 298 297 297 296 296 296 296 296 295 295 295 295 295 294 294 294 292 291 290 288 288 291 295 296 296 296 296 296 296 296 296 296 296 295 295 295 294 294 293 294 294 294 294 293 293 294 294 294 294 294 293 294
300 300 300 300 299 299 299 299 299 299 299 299 299 299 299 299 299 299 299 299 299 299 299 299 299 299 299 299 299 299 299 299 299 299 299 298 298 298 297 297 297 297 296 296 296 296 295 295 295 295 295 294 293 293 291 290 291 294 296 296 296 296 296 296 296 296 296 295 295 295 295 295 294 294 293 293 293 293 293 293 293 293 294 294 294 293 293
300 300 300 299 299 299 299 299 299 299 299 299 299 299 299 299 299 299 299 299 299 299 299 299 299 299 299 299 299 300 299 299 299 299 299 298 298 298 298 297 297 297 297 297 297 296 296 295 295 295 295 295 294 294 293 293 293 294 295 295 295 295 295 295 296 296 296 295 294 294 295 295 294 294 294 293 293 294 294 293 293 293 293 294 294 293 293
300 300 300 300 300 300 299 299 299 299 299 299 299 299 299 299 299 299 299 299 299 299 299 299 299 299 300 299 299 300 300 300 299 299 299 298 298 298 298 298 298 297 297 297 297 296 296 295 295 295 295 295 295 294 294 294 294 295 295 295 295 294 294 294 295 296 296 295 294 294 295 294 294 294 293 294 294 294 294 294 293 293 293 294 294 293 293
300 300 300 300 299 299 299 299 299 299 299 299 299 299 299 299 299 299 299 299 299 299 299 299 299 299 299 299 300 300 300 299 299 299 299 298 298 298 298 298 298 297 297 297 297 297 296 296 295 295 295 295 295 294 294 294 295 295 295 295 295 295 295 294 294 295 295 295 295 294 294 294 294 294 293 293 293 293 294 294 293 293 293 293 293 293 293
300 300 300 299 299 299 300 300 299 299 299 299 299 299 299 299 299 299 299 299 299 299 299 299 299 299 299 299 299 299 299 299 299 299 299 298 298 298 298 298 298 298 297 297 297 296 296 296 296 295 295 295 295 295 294 294 295 295 295 295 295 295 295 294 293 293 294 294 294 294 294 294 293 293 293 293 293 293 293 293 293 293 293 293 293 293 293
300 300 299 299 299 300 300 299 299 299 299 299 299 299 299 299 299 299 299 299 299 299 298 298 298 299 299 299 299 299 299 299 299 299 299 299 298 298 298 298 298 297 297 297 296 296 296 296 295 295 295 295 295 295 294 294 295 295 295 295 295 295 295 294 294 293 293 293 293 294 294 293 293 293 293 292 292 293 293 293 293 293 293 293 293 292 292
Wind_Speed
2 2 5 7 7 7 8 10 10 9 9 8 6 2 1 3 4 1 0 8 9 6 9 10 9 10 11 13 16 18 19 19 19 18 18 18 18 18 19 20 19 18 18 17 16 16 15 13 12 12 11 9 8 7 6 3 6 12 15 17 19 19 19 21 23 25 25 26 26 24 23 24 23 21 19 18 19 20 19 19 19 19 18 17 18 18 16
2 5 7 7 8 8 8 9 8 8 8 7 5 2 2 3 7 4 6 12 10 7 8 10 12 14 16 18 21 21 21 19 18 18 18 18 18 18 19 19 19 17 15 14 13 12 13 13 11 11 10 8 6 6 6 6 2 7 11 16 19 18 19 22 24 27 28 27 26 24 23 23 21 20 19 18 19 20 20 19 18 18 20 19 17 18 18
1 5 9 9 10 10 9 9 10 10 9 6 6 5 4 2 7 8 8 10 8 7 10 13 15 18 19 20 21 21 19 17 16 17 17 17 17 18 18 18 18 16 14 14 13 12 13 14 12 11 10 8 6 4 4 5 4 3 8 13 17 18 20 21 23 26 27 26 26 24 22 23 22 21 20 19 19 19 20 19 16 17 21 19 16 17 18
1 4 8 9 9 11 10 9 11 11 8 6 5 4 4 3 3 9 9 6 4 6 10 14 17 20 20 19 18 19 18 17 16 16 16 16 18 19 19 19 19 17 16 14 14 13 14 15 14 13 11 10 10 9 6 4 3 1 7 13 16 17 19 19 19 23 24 26 28 26 24 26 23 21 22 21 20 19 19 19 17 18 20 17 15 17 17
1 2 8 8 6 7 5 4 7 8 7 6 5 4 5 5 2 3 5 5 6 8 10 12 14 16 18 18 18 18 17 17 17 17 17 18 20 21 21 21 20 19 18 16 15 15 16 17 17 16 14 13 14 15 11 6 3 2 6 15 18 16 18 19 19 21 22 23 25 25 25 26 24 22 23 22 20 20 20 19 19 20 20 15 14 17 18
2 3 4 5 4 3 1 2 4 6 6 7 7 5 7 8 6 6 7 8 9 10 10 12 13 16 18 20 20 19 18 17 17 17 18 20 21 21 21 21 21 19 19 18 18 18 19 20 20 19 18 18 17 17 14 10 9 8 9 13 16 16 18 20 21 23 22 21 21 22 24 25 23 22 22 21 21 20 19 19 19 19 19 15 13 16 17
3 2 1 3 2 1 3 1 4 5 4 5 7 8 10 9 10 12 12 11 11 13 15 17 20 21 22 24 24 22 21 20 18 19 20 20 21 21 21 20 20 19 19 19 19 19 19 20 22 21 20 21 20 20 20 19 17 15 13 11 11 12 14 15 17 22 24 23 21 22 23 23 23 23 22 21 21 19 18 18 17 17 18 15 13 14 15
3 2 1 3 3 1 1 1 5 6 4 5 5 8 9 8 8 11 12 11 12 15 17 19 22 25 27 28 27 24 23 22 21 22 22 21 21 22 21 20 19 18 18 19 19 19 19 20 21 22 22 22 22 23 24 24 23 22 19 16 12 10 9 8 8 13 20 23 23 23 24 23 22 23 22 20 20 19 18 16 15 14 16 15 11 12 13
3 4 3 3 4 1 3 2 4 4 3 3 2 3 6 7 6 9 11 10 11 13 16 19 21 23 24 23 21 21 22 23 24 24 23 22 21 21 20 20 19 17 17 17 17 17 19 20 21 20 21 22 23 23 24 25 25 24 23 21 18 14 11 10 9 9 12 16 17 19 21 22 22 24 23 20 18 17 16 15 15 14 14 14 12 11 11
3 5 4 3 3 2 1 2 5 5 2 1 3 1 3 6 4 9 11 10 11 13 15 17 14 11 14 10 9 15 18 20 22 23 23 23 22 21 20 19 18 17 15 15 16 16 18 21 20 19 19 21 23 24 25 26 27 26 26 25 23 20 17 14 13 13 13 13 13 14 16 17 18 20 20 18 17 16 16 16 17 16 15 14 14 12 11
3 5 4 2 2 2 1 4 7 7 4 3 3 1 2 7 6 9 13 9 10 11 11 10 6 4 6 3 5 12 14 15 18 21 22 23 23 21 20 19 19 19 16 15 14 15 18 20 19 18 18 20 22 24 25 25 25 27 27 25 24 24 24 21 18 16 15 15 15 14 13 12 13 15 16 16 16 16 16 16 17 17 15 13 12 11 10
2 4 3 2 3 2 2 6 9 9 6 3 2 3 3 7 9 10 12 10 10 10 11 11 6 5 6 6 7 12 14 14 17 18 20 21 22 22 21 21 20 19 18 16 16 16 18 19 17 16 17 19 22 23 23 23 24 25 24 23 22 22 23 25 24 23 22 20 17 15 13 12 13 15 15 16 16 15 15 14 16 16 14 11 10 9 9
4 5 4 2 2 2 4 9 10 9 5 1 1 2 2 4 11 14 14 14 13 13 17 19 14 12 15 17 16 18 18 19 19 19 19 19 20 21 22 21 20 19 19 19 18 18 18 17 17 16 16 18 21 22 23 24 23 21 20 19 20 21 22 23 24 24 25 26 24 22 19 15 13 14 15 15 14 14 13 13 13 13 11 9 9 9 8
2 3 4 2 3 2 7 13 10 6 1 2 1 2 2 7 14 17 18 19 19 21 25 27 25 24 24 22 21 20 20 20 20 20 21 20 21 21 22 21 21 21 20 19 19 18 17 16 17 16 15 18 20 20 22 24 23 19 17 16 17 18 20 21 22 23 23 24 24 23 23 23 21 17 16 15 13 12 11 11 11 10 9 9 8 8 7
2 3 3 3 2 3 12 12 6 4 3 2 4 10 12 14 17 20 20 20 23 28 30 29 28 27 24 22 21 19 18 18 18 19 20 21 22 22 22 22 22 22 22 21 19 19 17 15 16 16 15 17 17 17 20 22 21 19 18 16 14 15 17 18 18 19 20 22 23 24 24 24 24 22 20 19 18 16 13 11 10 9 8 8 8 8 8
1 2 2 1 1 5 11 8 3 4 6 7 11 15 17 17 19 23 24 21 22 28 32 29 27 26 24 23 22 20 19 18 17 16 17 18 20 21 21 21 21 21 22 21 20 19 18 16 15 14 14 15 15 16 17 18 17 17 18 16 14 14 15 15 16 16 16 17 19 21 22 23 23 21 19 18 19 18 17 16 14 13 11 11 11 13 13
3 4 4 4 5 7 10 11 10 12 14 14 17 21 22 20 21 26 28 25 23 26 29 29 26 25 24 23 22 22 22 21 20 20 19 18 18 19 18 19 19 20 20 20 19 19 18 17 16 15 13 12 13 14 14 13 13 14 15 14 14 15 15 15 15 14 13 13 15 15 16 18 20 20 19 18 18 18 18 18 16 15 13 12 12 13 12
7 9 9 8 10 12 13 14 17 19 20 20 21 25 26 24 24 26 28 27 25 24 25 27 26 24 22 21 20 19 19 18 18 20 21 22 21 20 20 19 18 18 19 19 19 19 18 17 17 17 15 13 13 13 11 9 10 11 11 12 13 13 14 14 14 13 12 12 11 11 11 12 13 15 16 17 18 18 18 18 17 15 14 14 14 14 12
4 5 5 7 11 14 16 18 21 23 23 22 24 27 27 26 26 26 26 26 25 23 23 24 23 21 20 20 19 19 18 17 16 16 18 20 21 20 21 20 18 17 18 19 20 20 19 17 15 16 17 17 16 15 12 10 8 7 6 8 9 10 10 11 11 11 11 11 10 8 8 8 8 9 10 11 13 14 15 16 16 15 15 14 15 14 12
5 5 7 12 16 17 18 19 22 23 23 23 24 25 26 25 24 23 23 23 22 21 20 20 20 19 17 17 17 17 17 17 16 15 16 17 17 17 17 18 19 18 19 19 19 19 19 17 14 14 16 16 15 14 14 13 11 9 8 7 6 7 7 7 7 7 7 8 7 7 6 6 5 5 6 7 8 9 11 12 12 12 13 13 12 13 12
7 8 10 15 16 16 17 19 20 22 24 25 25 24 24 24 23 22 21 20 20 20 19 18 18 17 16 15 14 14 15 15 15 14 14 14 14 13 12 13 16 17 16 15 15 16 16 16 13 11 13 14 13 11 11 11 12 13 13 11 9 8 7 6 6 7 7 8 8 8 7 5 4 5 6 7 8 8 9 10 10 9 9 10 9 8 8
4 5 7 10 9 9 13 17 20 22 24 26 26 25 24 23 23 22 22 21 20 19 18 17 17 16 14 13 13 14 13 13 13 14 13 13 13 13 12 12 13 13 12 11 12 14 14 13 12 10 10 11 12 11 10 10 11 13 15 14 13 12 11 9 9 10 10 11 11 11 11 9 8 8 8 8 7 8 8 8 8 7 7 7 6 5 4
8 12 16 16 14 14 15 18 20 21 23 24 24 24 23 22 22 22 21 21 19 17 16 16 16 16 14 12 11 12 11 11 12 13 14 15 15 13 13 13 12 10 10 11 11 13 13 10 9 10 8 10 12 13 11 10 9 10 12 14 14 15 15 14 13 12 12 12 12 12 13 13 13 12 11 11 11 9 8 6 5 4 4 5 5 5 6
16 20 22 21 20 20 21 21 21 21 21 22 22 22 21 20 19 19 18 18 17 16 14 13 13 13 12 10 8 8 9 11 13 13 13 13 12 11 11 13 13 10 11 12 11 12 10 6 7 10 8 9 13 16 15 12 9 8 8 10 12 13 13 11 10 11 12 11 11 11 12 12 13 13 13 13 13 13 12 11 10 8 6 4 2 2 3
21 23 25 25 25 25 24 23 22 21 20 20 21 20 19 19 18 17 16 16 14 13 13 13 12 11 12 13 13 11 11 12 14 13 11 10 10 9 9 11 11 11 12 13 13 11 8 5 8 11 8 11 14 16 15 13 12 11 9 9 10 10 9 9 9 10 11 11 10 11 11 11 11 12 12 12 13 13 12 12 12 12 11 9 7 5 4
27 27 28 27 26 25 23 21 20 19 17 18 19 20 19 19 19 17 16 16 14 14 14 15 14 13 14 16 17 16 14 12 12 14 15 15 14 13 11 10 11 10 10 11 11 9 7 7 10 10 8 12 13 12 11 9 9 9 8 8 8 8 7 7 8 9 10 10 11 12 13 12 11 10 10 9 10 10 9 9 10 11 12 12 10 8 8
29 29 28 25 22 22 21 20 20 20 18 18 19 19 19 19 19 18 17 16 16 15 15 14 13 12 12 12 14 14 13 12 11 12 15 16 16 14 13 11 11 8 7 7 8 7 6 8 10 10 9 11 10 10 10 10 9 7 6 6 6 6 6 6 7 9 8 8 8 10 11 10 9 9 10 10 8 8 7 6 7 9 11 12 11 10 10
27 26 24 21 20 21 20 20 20 20 20 19 19 19 19 19 18 17 15 14 13 13 13 12 12 12 12 13 13 14 14 13 11 11 14 15 13 12 11 9 9 8 5 6 7 6 5 7 8 8 8 8 8 8 9 11 11 9 7 5 4 4 5 6 9 11 10 8 7 7 8 9 9 8 9 9 8 9 9 7 6 7 9 10 10 10 9
22 21 20 19 20 20 20 19 19 18 17 18 18 16 17 16 16 15 13 11 10 10 11 11 11 12 13 14 13 12 12 11 10 9 10 10 10 12 12 9 8 8 6 5 7 6 6 6 6 6 7 7 8 9 9 10 10 9 8 8 5 3 5 7 8 10 11 10 9 8 8 10 10 8 8 7 7 7 10 10 8 7 10 10 8 7 7
22 21 20 19 19 17 17 17 17 16 16 15 15 14 15 15 15 14 12 10 10 11 11 11 12 12 13 13 12 10 10 10 9 7 7 5 7 12 15 10 7 7 7 7 7 7 6 6 7 9 8 6 8 9 9 9 9 7 8 10 10 7 7 8 8 8 8 7 8 8 7 7 8 8 8 9 8 7 9 11 10 8 8 8 6 6 8
21 20 19 19 17 16 16 17 17 16 15 13 13 14 14 14 14 13 12 11 10 9 9 10 12 13 13 13 11 10 9 9 8 7 5 5 7 11 14 10 5 6 7 7 8 8 6 6 8 10 11 10 8 8 8 7 6 5 6 11 13 11 8 8 7 7 5 5 6 7 7 6 7 7 7 8 7 6 5 6 7 5 4 4 4 4 6
20 19 19 18 16 14 15 16 16 15 13 13 14 13 12 12 13 12 10 9 9 9 9 10 10 11 11 10 9 8 7 6 5 3 4 7 9 11 12 9 4 3 3 4 7 7 6 6 7 9 9 9 8 7 8 6 4 4 6 9 12 11 8 6 6 5 4 4 6 6 5 5 6 6 6 6 6 6 5 4 3 2 1 3 4 2 3
18 19 19 18 16 15 15 15 15 14 12 12 13 13 12 12 13 12 10 9 10 10 10 9 7 7 8 7 5 5 5 5 6 7 7 8 8 9 9 9 7 3 1 3 5 5 4 6 6 5 4 4 5 4 6 4 4 4 6 7 8 8 6 4 4 4 3 3 4 5 4 3 3 5 5 4 4 6 6 4 3 2 2 4 6 4 4
15 15 16 17 16 15 15 15 14 13 12 12 12 13 12 11 12 13 11 9 7 7 7 7 7 7 6 4 3 4 4 4 7 10 9 7 6 7 7 9 10 8 5 5 6 6 5 7 6 6 5 4 4 4 3 2 2 2 7 8 9 8 5 3 4 6 6 5 3 2 2 3 4 6 6 6 6 7 6 4 3 3 5 7 7 4 6
14 13 14 15 15 14 14 14 13 13 13 13 14 14 12 10 9 9 8 7 7 8 9 8 7 5 3 3 3 2 2 4 8 12 11 7 5 6 6 8 11 11 9 8 8 7 7 7 6 7 7 6 4 4 4 4 4 1 8 10 9 9 7 4 4 5 6 8 8 6 3 4 7 8 8 8 8 8 5 4 4 4 7 8 6 2 5
15 15 15 15 15 15 14 14 13 13 13 13 12 12 10 9 9 9 9 10 11 11 10 8 5 4 4 5 4 2 2 6 11 13 12 8 6 6 6 7 9 10 9 7 8 8 7 6 5 6 6 5 4 4 5 7 4 4 10 9 7 7 7 6 5 4 4 6 8 8 7 9 8 6 5 5 2 1 2 3 4 6 9 10 7 7 4
16 16 16 15 14 13 12 11 11 12 12 12 11 9 8 8 8 9 9 9 8 7 6 6 5 5 4 4 3 1 2 7 13 14 11 10 9 7 6 6 7 8 8 8 8 8 8 7 6 4 3 4 5 6 8 7 2 6 9 7 6 7 7 4 3 4 5 5 5 7 8 8 6 3 3 3 7 4 3 4 4 5 7 10 9 9 8
16 15 14 13 12 11 10 10 9 11 12 11 10 9 9 8 8 8 8 8 6 5 5 4 5 5 4 2 1 3 5 8 12 13 12 11 11 9 7 6 7 8 9 9 9 8 7 7 6 4 2 4 6 7 7 4 5 8 8 7 7 8 6 3 3 5 6 6 4 4 5 4 4 2 2 6 9 4 6 7 5 4 4 8 8 6 6
14 13 13 13 12 10 11 11 11 11 10 8 6 7 8 7 6 6 8 7 6 5 4 4 4 5 3 1 1 4 6 8 10 11 10 9 9 9 7 6 7 8 8 9 9 8 8 7 4 4 2 4 5 6 6 6 6 6 8 7 6 6 5 4 3 3 4 5 4 3 2 2 3 2 1 4 7 6 6 7 5 2 4 8 7 4 3
14 14 14 14 12 10 10 10 10 9 8 7 8 9 8 6 6 6 6 5 4 4 4 4 4 5 6 6 5 5 6 7 8 10 9 7 9 9 6 4 5 7 8 10 10 9 7 7 6 6 5 5 5 6 7 8 7 5 6 7 5 4 5 4 3 3 2 3 3 2 3 5 4 2 0 1 3 4 3 2 3 4 5 8 6 3 2
15 13 12 12 11 11 10 10 9 8 7 8 8 7 6 6 6 5 5 4 3 2 2 3 3 3 4 4 4 4 4 4 5 8 9 7 7 7 5 4 6 8 10 11 9 7 9 10 10 10 9 9 9 8 6 7 8 8 6 5 3 3 4 4 4 3 3 2 1 0 2 4 3 2 2 2 3 2 4 4 3 8 7 7 7 4 2
12 11 10 10 11 11 10 9 9 9 8 7 6 5 4 5 5 4 3 3 1 1 3 3 1 2 3 1 1 2 4 4 3 6 9 8 5 3 4 4 6 9 11 10 6 6 9 9 9 9 9 10 10 9 6 4 6 7 5 3 1 2 2 4 4 4 3 3 2 2 1 1 3 6 7 6 5 5 2 5 1 8 10 8 6 4 2
12 11 10 9 9 10 9 7 7 7 6 6 6 5 4 4 3 2 2 2 1 1 1 1 1 2 3 3 2 1 3 4 2 4 9 10 5 3 2 4 4 7 10 9 6 7 8 9 8 8 8 9 9 8 6 3 3 4 1 1 3 3 2 1 3 4 5 5 5 6 5 4 5 7 8 7 7 8 6 2 2 3 7 10 9 6 5
12 11 10 8 8 9 8 6 6 6 5 5 6 6 4 3 3 2 2 2 3 3 2 3 4 2 1 2 1 1 2 3 2 4 8 8 4 7 5 3 4 5 8 8 6 6 8 8 8 8 8 9 9 8 6 4 1 1 1 3 3 3 4 3 0 1 2 2 2 3 5 6 7 8 9 8 8 10 9 6 3 0 2 6 10 9 6
10 8 9 9 8 8 7 6 6 6 5 5 5 4 3 3 3 4 4 3 4 4 3 4 4 4 4 5 4 4 4 4 4 4 6 6 5 7 6 3 3 5 8 8 7 6 6 4 5 6 7 8 9 8 6 4 3 3 3 3 5 5 5 4 3 4 6 7 6 4 4 4 5 7 10 11 11 10 9 9 9 5 1 2 4 7 7
9 8 9 10 8 7 6 6 6 5 5 4 3 4 5 5 4 4 4 5 5 6 6 6 5 5 4 4 4 5 6 6 5 5 5 7 7 5 4 4 6 8 8 7 6 5 4 2 3 5 6 7 7 7 6 5 4 5 4 4 5 6 5 6 6 6 8 10 11 10 9 6 6 7 9 10 12 12 10 10 12 10 5 3 2 3 5
8 6 8 9 7 6 5 4 4 3 4 3 3 4 5 5 4 4 5 6 7 8 9 10 9 8 7 7 7 7 7 7 7 6 6 8 9 8 7 7 8 9 8 7 6 5 4 4 3 4 6 7 7 7 7 5 3 4 3 5 7 8 8 8 8 8 8 8 8 8 10 8 7 9 8 6 5 7 6 6 9 12 10 5 2 2 3
8 7 6 6 6 6 6 4 3 3 4 3 3 3 3 4 5 5 5 6 7 9 9 8 7 6 7 7 7 7 7 8 9 7 6 7 9 9 8 7 7 8 8 8 7 6 5 4 4 5 7 8 8 8 7 5 1 2 2 5 7 8 9 9 8 8 7 5 4 4 6 7 7 9 9 7 6 7 8 5 2 9 10 7 3 2 4
9 9 7 6 6 7 7 5 4 5 5 6 6 5 5 6 6 6 5 6 8 8 7 5 4 5 6 7 8 8 8 9 9 8 6 6 8 8 8 8 8 9 9 8 7 5 5 5 6 7 8 9 8 7 7 5 1 2 2 6 9 9 9 9 8 9 8 5 3 4 5 6 7 8 8 8 9 8 6 6 4 2 7 8 4 4 6
10 9 8 7 7 6 6 5 5 5 5 5 4 3 3 4 5 4 3 5 6 4 3 3 5 7 7 7 7 7 7 7 8 7 7 7 8 8 9 10 10 9 8 8 8 8 7 8 8 8 8 7 7 7 7 6 3 2 3 7 10 10 10 10 9 8 8 7 5 5 6 8 9 9 8 7 8 7 6 3 2 3 4 7 8 7 9
11 10 9 8 6 6 7 6 4 3 3 3 3 2 2 2 2 2 3 5 6 5 5 5 6 7 6 5 5 5 7 7 8 8 8 8 9 9 9 10 10 8 7 7 8 8 8 7 7 7 7 7 7 7 7 6 4 3 3 6 8 8 10 12 10 8 7 6 5 5 7 8 9 10 10 9 7 6 3 4 5 5 7 8 9 10 11
10 10 10 8 6 6 7 7 4 3 3 4 3 3 3 3 4 3 3 3 4 4 3 3 3 3 3 4 5 6 6 7 7 8 7 7 8 9 9 9 8 7 6 5 5 6 6 5 5 6 6 7 7 6 6 4 4 4 4 6 7 8 9 10 9 7 5 5 5 6 8 8 7 7 10 11 10 6 4 4 5 7 8 10 11 11 12
Wind_Direction
79 87 75 89 96 81 66 54 36 19 17 31 54 68 266 104 113 232 62 98 99 99 100 94 79 75 76 74 74 74 73 69 67 68 63 55 50 46 47 53 58 63 64 64 64 66 69 70 68 72 77 73 72 68 55 66 178 187 187 183 179 180 183 179 175 174 173 169 166 167 173 175 174 173 170 166 162 160 161 162 159 157 156 148 144 148 150
50 79 79 88 93 83 63 50 41 28 17 20 46 50 301 88 111 124 94 89 79 63 76 80 73 72 72 70 68 65 64 63 62 63 61 56 51 47 48 56 63 67 70 74 77 76 76 77 75 77 82 81 78 73 55 49 128 193 195 185 175 172 180 183 179 176 174 171 167 167 170 172 171 168 165 162 161 162 160 155 156 159 154 145 148 156 155
43 96 90 86 93 92 71 42 27 27 25 11 18 20 349 46 118 131 113 96 86 70 73 74 71 68 65 64 62 60 61 63 64 63 61 59 56 56 58 63 70 76 80 84 89 83 72 69 71 75 74 70 69 66 52 52 75 162 188 183 174 171 180 184 180 175 171 167 165 165 163 162 161 161 161 158 157 160 159 153 152 153 147 144 153 161 159
12 103 102 102 101 90 70 39 14 8 13 18 27 36 9 353 130 135 119 99 101 94 81 72 66 63 61 58 59 62 62 62 65 65 63 63 63 65 68 68 71 77 81 85 87 81 73 67 66 70 68 60 54 51 51 64 78 168 183 175 172 174 178 181 179 177 173 168 166 163 160 160 159 157 156 155 153 155 156 154 153 151 148 148 159 166 165
93 115 123 128 113 87 61 14 358 342 344 18 36 53 50 27 27 116 112 110 113 102 87 77 69 63 61 56 56 62 65 63 66 67 67 68 70 71 70 70 72 75 78 83 84 81 80 76 71 69 67 63 61 62 65 75 73 74 150 162 169 176 179 181 183 182 182 178 169 161 161 165 162 156 153 154 155 155 156 157 156 155 156 156 160 168 172
160 211 152 124 97 92 173 297 345 327 334 27 45 38 45 60 69 65 71 85 91 88 85 86 83 75 69 65 61 62 67 67 66 68 71 72 73 73 73 73 75 77 80 84 88 87 87 87 85 82 78 74 73 74 74 76 79 83 109 143 161 171 176 182 184 182 186 189 175 162 162 165 163 158 155 154 155 156 157 159 158 160 165 163 153 162 173
146 222 115 90 97 185 190 180 3 346 339 29 65 58 40 53 80 83 80 80 83 91 94 94 94 88 80 72 65 61 65 69 69 71 73 74 75 75 74 74 75 78 82 86 88 90 91 93 95 95 92 89 86 85 82 79 78 78 80 102 134 155 164 175 182 180 183 187 182 171 168 167 163 157 155 155 156 157 160 159 156 158 168 167 152 155 168
124 121 70 105 142 188 120 47 7 12 1 355 41 62 43 37 71 91 96 99 100 103 105 103 101 95 84 73 64 61 65 69 71 72 74 74 76 76 75 74 73 73 76 80 84 89 94 99 101 100 98 99 98 96 93 89 84 80 77 80 94 111 123 135 155 171 176 180 180 174 171 173 172 162 155 155 155 155 159 161 154 151 162 167 160 156 166
116 105 83 109 133 84 27 9 350 11 26 342 347 60 49 36 65 103 111 115 117 115 117 120 115 97 81 67 55 56 62 64 65 69 71 71 73 77 78 77 75 72 72 76 81 88 96 99 101 102 102 104 105 104 100 95 91 88 84 81 86 95 105 115 120 134 156 169 174 173 172 177 178 168 158 159 163 162 164 168 166 163 168 175 177 175 175
121 113 111 121 152 161 37 353 333 343 360 296 289 167 68 19 47 119 122 122 129 135 140 145 138 95 70 60 41 49 58 61 61 61 64 66 67 70 74 77 80 79 75 77 80 86 92 94 96 102 107 108 107 105 102 96 92 92 87 81 81 86 92 106 123 132 142 151 160 168 173 181 184 177 169 170 177 179 180 182 182 181 181 182 182 180 178
125 122 126 126 142 140 40 331 323 334 348 321 299 150 96 346 358 115 129 128 134 147 155 153 144 69 81 96 35 47 58 65 65 61 58 60 60 60 65 70 75 78 80 85 88 84 81 81 84 94 105 111 110 105 101 99 96 94 90 84 82 84 86 93 104 116 128 141 149 156 164 173 179 179 178 179 181 184 185 184 184 186 189 189 185 179 179
95 102 99 82 95 99 6 326 315 318 324 310 276 156 129 356 18 91 118 116 119 127 121 105 70 50 108 122 73 69 77 80 79 71 62 58 55 53 57 63 68 74 81 89 92 83 74 70 71 79 92 104 108 105 103 103 99 95 92 91 91 93 93 93 95 97 100 104 110 119 133 152 166 171 171 171 174 176 175 173 176 182 187 190 188 182 179
74 97 105 85 91 92 333 319 312 309 299 232 153 182 204 29 55 86 101 100 105 109 104 100 88 82 100 106 98 93 91 85 83 80 74 70 63 56 55 58 62 67 70 75 79 78 75 74 74 73 77 84 87 91 96 98 95 93 98 101 102 102 102 100 99 98 97 95 93 94 99 111 137 163 168 164 164 165 163 162 167 174 178 180 180 174 169
25 83 103 99 110 62 336 323 320 331 311 186 116 60 97 89 86 95 100 101 107 107 101 102 104 103 104 104 101 98 94 89 86 84 81 79 74 66 59 57 60 62 62 64 67 68 71 75 77 77 78 76 72 70 74 79 83 89 98 104 108 110 110 107 106 105 105 105 103 100 97 97 102 115 127 129 132 141 149 156 165 174 179 183 185 182 180
360 63 76 95 136 4 349 338 327 359 28 155 114 82 88 96 96 97 97 99 109 111 106 104 108 108 105 101 98 95 93 91 88 86 83 78 74 70 64 59 60 60 59 59 59 59 61 66 73 76 76 77 75 66 58 61 70 79 83 87 97 106 108 107 108 111 112 113 111 108 106 105 103 104 109 112 114 118 123 129 138 147 155 162 165 160 149
8 77 73 75 101 13 10 20 54 49 64 124 129 106 97 96 98 102 101 100 107 112 111 109 108 105 100 95 91 87 83 80 80 82 84 81 77 75 70 67 64 61 59 57 56 56 58 61 68 73 72 74 79 74 60 55 59 65 70 75 83 90 94 96 99 105 110 113 114 113 113 112 109 106 108 113 114 115 115 113 110 109 115 125 129 127 128
59 79 98 92 81 62 49 57 75 83 94 114 121 113 105 101 103 107 107 106 107 109 110 109 106 101 96 91 85 80 74 70 68 67 67 67 67 67 67 68 67 64 61 57 55 55 57 59 63 68 69 73 78 75 65 59 58 57 57 64 72 77 80 83 86 91 98 104 111 116 119 120 117 113 112 114 116 116 118 118 117 117 122 127 128 130 137
86 75 85 92 84 76 70 72 83 93 101 106 109 108 105 105 107 109 110 112 112 110 108 106 103 101 96 89 82 76 71 67 63 60 58 57 57 57 57 58 58 59 59 54 51 51 52 55 59 61 62 66 68 65 62 61 62 58 50 47 52 59 66 70 73 75 80 87 96 104 111 119 123 123 122 124 124 124 124 124 125 131 136 141 144 149 156
106 69 73 91 89 83 79 83 90 96 99 102 105 106 106 107 108 109 111 113 112 108 106 105 103 101 96 91 86 80 77 74 68 61 58 56 54 54 55 53 51 54 53 49 47 45 45 50 60 64 63 62 60 59 58 58 62 68 66 54 43 39 46 54 58 61 65 68 71 79 87 95 108 121 130 135 137 138 137 134 132 135 139 144 148 152 157
84 87 95 96 91 87 85 87 91 95 98 101 104 107 109 109 109 109 110 110 107 105 104 105 106 105 99 93 88 81 76 74 71 66 63 59 53 52 51 47 49 55 57 54 53 48 41 42 55 68 70 66 63 62 60 59 59 58 58 61 55 45 40 41 45 52 58 58 57 63 73 81 94 116 137 150 154 154 154 152 148 145 146 148 146 146 149
93 101 112 107 96 87 87 90 93 97 102 105 106 108 111 111 111 111 111 109 107 106 106 106 106 104 98 91 88 85 80 77 74 72 71 65 61 64 62 49 48 57 63 61 60 55 44 34 36 57 72 70 67 70 70 67 67 62 56 56 60 60 55 56 65 70 69 66 66 68 73 86 108 126 140 153 164 167 168 170 170 164 161 162 157 149 150
96 93 112 116 106 96 100 102 102 105 108 109 109 110 111 111 111 111 110 110 109 108 107 105 102 100 96 91 89 87 81 78 78 78 75 66 61 70 78 71 65 72 68 51 51 62 59 42 31 44 72 77 69 72 79 77 76 74 72 72 72 69 70 79 88 86 78 76 77 74 71 74 86 102 116 127 143 160 168 177 185 187 187 190 193 201 207
105 103 107 109 107 108 114 115 112 111 112 111 110 110 111 111 111 111 109 106 105 106 103 96 91 95 97 94 92 86 76 72 77 79 80 76 68 68 75 69 64 65 48 26 36 61 67 52 30 32 58 78 73 71 75 80 86 89 85 84 83 79 78 82 86 84 77 72 73 74 72 70 72 78 89 96 102 111 120 127 143 167 190 207 220 238 249
117 115 116 116 116 119 123 123 120 117 115 112 111 112 113 112 111 109 105 102 102 102 97 89 86 91 91 87 89 89 80 74 72 71 78 81 71 67 72 63 50 37 26 27 49 66 60 37 8 11 36 78 79 71 69 71 84 99 95 90 89 86 85 86 89 92 90 79 72 74 75 74 72 69 72 81 87 89 90 89 86 86 92 109 150 225 246
119 120 118 117 119 123 126 126 124 123 121 119 118 117 115 113 110 107 104 105 105 104 103 104 102 97 90 84 83 85 84 78 66 56 55 59 56 61 73 66 52 38 32 45 68 76 62 24 357 5 47 93 88 76 72 69 71 81 90 96 100 100 103 105 104 105 106 99 90 85 80 77 77 73 68 71 77 78 79 79 76 74 74 74 73 75 85
119 122 120 118 120 123 126 128 131 133 129 125 126 127 124 117 114 111 107 104 103 103 105 105 98 89 86 85 84 85 85 79 68 57 49 46 47 50 56 61 64 57 41 46 65 71 54 22 0 10 67 103 96 83 78 69 65 77 90 99 103 103 111 123 120 116 114 108 101 97 93 85 79 80 83 80 74 73 73 74 76 73 65 59 61 72 85
124 126 124 123 127 132 132 131 134 140 141 136 135 140 138 124 111 106 104 98 93 91 90 88 83 77 75 77 80 80 77 77 82 73 53 40 39 42 43 50 61 56 30 32 52 52 31 16 8 17 63 101 109 98 79 64 64 79 90 96 101 96 92 105 112 113 119 119 109 107 109 100 84 83 94 94 85 81 85 92 90 79 67 59 62 75 91
134 131 127 129 136 139 137 133 130 132 135 135 136 144 148 136 117 108 107 104 98 92 86 78 71 68 72 79 80 75 70 74 82 72 50 37 35 39 38 38 44 48 47 54 55 39 12 13 18 21 38 70 103 110 89 69 64 65 64 63 82 101 89 82 88 98 106 110 104 105 114 112 102 95 96 95 90 87 97 117 117 85 73 69 67 77 97
122 118 121 130 138 140 141 144 144 139 133 130 128 133 141 138 124 115 114 113 109 104 97 89 84 85 89 89 81 72 70 70 68 61 52 42 31 27 28 35 51 60 58 46 34 21 7 15 20 6 6 43 87 106 102 82 68 60 56 50 50 96 111 98 96 102 102 94 89 98 115 119 117 112 105 108 115 102 99 118 130 103 79 73 73 96 121
106 107 110 116 126 131 133 135 140 142 140 138 134 127 124 121 116 114 114 113 110 107 101 98 98 97 91 79 71 76 79 71 69 74 70 49 18 12 16 31 67 65 42 23 19 19 15 9 7 2 2 31 82 107 112 95 78 72 67 61 63 85 106 106 108 113 110 98 89 91 105 123 129 122 110 114 133 127 103 108 121 111 85 71 79 120 128
114 115 113 111 113 114 108 103 103 108 117 122 122 120 117 112 108 107 105 100 98 99 99 99 97 91 81 73 76 90 88 74 79 93 70 22 357 360 7 20 64 71 47 26 13 13 15 10 12 20 24 27 49 90 111 105 92 99 89 72 71 79 89 93 92 83 88 124 122 102 97 113 131 131 117 110 124 133 111 98 103 102 78 49 63 112 126
122 121 120 119 119 115 108 104 103 104 106 107 106 107 111 113 113 113 109 101 97 99 107 112 102 86 81 82 85 85 74 55 45 32 357 342 341 353 8 24 54 90 64 16 8 14 22 15 17 33 39 27 28 73 107 101 78 102 113 91 80 80 78 76 74 60 66 127 139 121 107 115 129 131 120 102 105 115 112 100 98 99 11 349 13 52 141
134 133 130 129 128 125 120 117 114 110 107 108 109 110 110 111 110 105 99 98 102 102 104 106 97 85 89 98 85 55 40 26 11 3 351 341 346 6 27 38 45 59 44 1 20 31 17 357 4 25 36 15 12 63 114 105 60 89 125 112 88 79 70 57 71 86 89 117 138 130 111 96 115 126 109 77 87 110 108 95 79 58 13 2 11 39 124
129 128 130 131 130 128 126 123 120 117 111 108 110 115 117 117 114 106 96 95 107 111 102 97 100 102 103 95 46 18 25 42 39 31 23 12 14 35 49 48 47 55 63 52 50 43 7 352 1 11 5 351 355 25 78 88 13 108 130 114 84 75 73 66 84 85 62 38 39 71 64 66 106 120 103 87 101 115 104 69 38 22 4 357 3 44 130
119 117 120 122 122 123 124 124 126 128 123 111 103 102 101 103 109 109 100 100 116 121 114 107 106 104 79 50 39 33 43 47 36 29 26 29 42 52 54 49 45 49 54 54 47 33 9 355 354 355 350 342 347 14 28 355 332 113 131 118 91 78 81 88 96 78 40 22 19 18 43 113 122 115 104 103 113 118 104 62 27 6 354 354 6 85 143
126 121 116 115 114 114 113 110 110 115 116 110 105 102 94 89 94 99 102 110 116 117 114 109 96 76 67 65 61 58 47 38 30 24 24 34 48 51 56 54 44 39 40 35 24 19 13 359 342 336 336 342 360 11 354 338 340 121 129 122 101 83 74 75 85 69 24 19 32 43 76 112 118 118 124 120 95 108 121 82 35 7 1 13 48 82 85
126 120 114 113 112 114 116 113 109 110 109 105 105 108 104 104 111 111 110 114 112 103 100 92 64 52 66 62 38 25 51 35 31 32 38 48 54 57 64 58 42 36 33 19 6 8 13 9 5 353 333 342 2 350 331 327 7 132 133 120 98 84 72 67 86 70 36 29 44 60 82 96 92 104 128 42 358 342 158 126 69 31 14 21 47 66 53
127 124 119 115 115 120 126 123 121 126 124 117 113 112 108 109 115 117 117 114 100 88 99 89 50 45 66 76 60 87 72 40 33 43 58 63 59 60 62 47 32 31 27 10 0 5 13 18 34 55 9 341 353 353 349 17 108 137 145 129 101 88 82 90 106 82 50 31 44 81 99 91 57 36 31 16 13 37 140 139 110 83 25 7 24 53 47
131 136 137 132 127 126 125 121 122 130 133 131 130 128 123 120 120 127 131 123 96 85 104 102 61 52 64 83 99 79 61 43 39 50 60 57 41 33 32 26 23 28 25 9 2 7 10 15 47 77 30 355 10 27 45 74 103 142 157 146 115 94 102 125 136 102 49 19 21 55 68 7 347 339 342 14 29 63 113 130 130 124 331 337 2 55 60
136 141 142 136 132 132 132 132 130 129 130 132 130 127 128 129 124 132 146 141 111 98 113 109 86 77 75 77 79 69 54 46 43 41 42 41 32 27 31 36 28 27 20 6 3 14 28 37 56 68 47 27 37 58 73 80 79 95 136 149 149 137 133 147 171 159 106 46 26 21 349 332 330 323 258 9 20 36 56 118 169 204 285 320 348 46 91
134 139 140 138 138 141 143 144 141 131 127 132 131 126 133 136 123 127 155 157 126 113 137 128 93 73 69 68 64 39 17 16 29 22 12 10 22 35 53 61 36 22 14 4 7 40 66 60 52 51 47 38 33 39 63 86 83 73 83 115 155 179 174 179 194 181 144 125 116 344 323 318 303 261 246 270 276 293 339 343 247 222 249 307 343 18 108
138 144 148 148 148 148 147 150 150 144 140 139 133 127 142 146 129 120 144 157 100 69 142 144 85 1 4 13 11 333 321 318 355 9 352 340 341 9 34 38 27 18 14 12 25 71 73 50 30 26 27 24 22 20 28 75 93 83 68 48 341 277 225 207 208 209 203 208 217 218 228 260 251 246 258 272 260 246 326 11 349 217 238 279 319 345 352
151 156 156 151 148 148 147 150 157 158 154 151 148 147 154 161 153 130 133 160 244 259 175 191 292 351 35 48 56 342 290 281 289 341 334 325 300 265 311 354 14 18 19 26 55 75 57 32 14 3 355 355 4 10 2 12 81 100 102 307 319 341 353 275 222 225 234 244 249 248 247 253 260 261 269 276 256 237 248 341 67 187 248 268 274 294 336
151 154 157 157 154 152 152 156 161 162 161 158 156 157 160 167 181 195 202 209 220 229 252 278 283 290 324 336 329 290 286 285 283 309 319 312 251 216 236 310 5 21 17 18 38 57 43 21 3 351 340 335 339 345 339 327 315 172 229 272 295 334 1 7 298 247 289 291 274 257 259 270 281 282 280 279 266 250 246 243 223 204 316 271 253 261 299
149 154 160 160 156 158 170 178 176 171 169 165 163 172 189 208 217 226 237 239 234 236 252 273 285 289 276 256 238 238 267 287 291 295 306 305 265 221 219 252 331 359 1 3 17 43 48 19 349 348 346 338 334 334 329 305 255 226 234 263 275 292 317 324 314 319 324 323 323 318 298 290 299 295 283 274 270 265 252 237 237 250 25 107 220 256 284
163 166 164 161 156 154 163 169 164 159 160 170 198 219 217 206 205 215 229 240 246 249 252 259 267 277 277 269 269 272 272 271 274 276 283 291 289 266 241 269 314 330 336 340 359 25 30 350 330 347 354 350 346 344 338 308 252 225 229 264 273 279 292 294 287 294 309 315 314 304 292 297 329 326 297 276 273 275 268 250 243 243 227 168 195 283 295
171 164 166 171 172 164 155 159 167 163 161 188 245 244 216 202 218 235 241 248 258 267 271 270 267 269 276 284 289 286 274 265 268 274 271 270 272 273 274 286 301 309 311 312 324 339 335 313 313 337 347 349 349 347 340 320 257 215 234 281 286 283 283 281 274 275 293 314 322 301 279 283 323 341 331 318 320 323 315 274 245 239 233 229 253 313 316
172 163 163 171 177 178 181 194 211 202 191 204 230 226 205 213 234 237 235 248 268 280 284 281 275 276 282 281 276 272 267 262 263 271 274 264 258 257 261 270 280 285 289 294 301 312 313 305 303 318 330 337 341 338 333 329 301 182 228 286 299 302 298 287 273 265 274 305 351 336 286 283 312 331 332 337 354 7 18 21 279 235 224 218 237 291 296
179 176 175 177 186 195 199 198 203 215 220 221 223 225 225 229 231 231 245 271 281 279 271 262 265 277 284 283 275 268 262 259 262 267 270 264 260 260 265 274 282 284 280 276 279 292 303 300 297 304 315 326 333 333 328 328 352 141 251 300 318 330 327 309 284 267 265 282 337 352 322 308 314 321 325 329 326 321 336 15 20 251 212 208 229 281 290
183 186 189 189 193 199 196 185 192 219 228 218 206 212 225 224 218 224 262 292 297 285 260 265 277 277 275 279 279 270 258 256 261 263 259 257 262 269 273 278 281 277 265 263 277 292 291 282 282 293 305 315 327 334 329 318 294 217 260 293 304 317 325 321 303 277 266 273 293 306 299 294 296 301 312 334 338 319 290 274 317 314 258 237 246 266 278
187 192 194 192 196 205 205 199 205 234 240 213 188 183 195 203 208 229 279 297 298 293 290 294 290 278 268 266 268 263 258 256 255 254 253 251 251 254 261 270 274 268 260 270 293 305 295 276 271 280 292 298 309 327 331 314 266 226 261 296 296 300 312 318 315 300 276 264 265 278 284 281 282 288 293 299 312 321 300 246 249 277 290 281 273 272 274
194 198 198 199 207 212 207 202 207 235 247 239 237 244 253 258 258 258 278 312 324 325 321 309 296 286 277 265 256 259 264 259 247 242 244 245 247 253 258 261 264 267 270 280 301 316 314 299 282 277 280 285 294 312 327 310 248 233 270 297 298 299 307 315 322 328 319 282 263 279 292 286 274 279 286 282 277 283 302 302 289 291 298 298 295 292 287